ATHENOXAT 1 (41168 NORAD) Tracking and Keplerian Element Data

This shows tracking and keplerian element data for the satellite.

Feedback or suggestion? Click here.




ElementValue
Catalog41168
NameATHENOXAT 1
Epoch Orbit19051
Epoch Day146.83963226
Epoch Year2019
RAAN23.5393
Inclination14.9889
Eccentricity0.0011558
Argument of Perigee136.5734
Mean Anonmoly223.5499
Mean Motion15.13587317
Decay Rate1.433E-05
L11 41168U 15077C 19146.83963226 .00001433 00000-0 40254-4 0 9990
L22 41168 14.9889 23.5393 0011558 136.5734 223.5499 15.13587317190516

Live tracking and technical data element details for ATHENOXAT 1 (NORAD 41168). ATHENOXAT 1 can be tracked NOW for your location showing map with azimuth and elevation plus other details from your city location.

Track the satellite on the map from your city or location and see movement details for azimuth, elevation, latitude, longitude, range, height, and movement on the map or in text.







IsCatalogInMostPopularTable: catalog: 41168, numindb: 204
Update: records affected: 1



GetName: 41168 ATHENOXAT 1

Hit Count: updated at: Mon, 27 May 2019 04:08:55 GMT